GFSNW_500_rhum_195.txt.gz
RH
35 31 28 28 26 23 20 23 26 39 54 72 80 91 95 11 22 4 12 12 6 6 7 8 8 9 9 8 5 13 75 82 80 84 77 74 83 61 57 77 94 100 90 71
42 38 33 30 28 25 19 21 32 31 45 58 85 93 96 42 15 15 11 30 9 8 5 6 8 9 10 10 7 8 31 92 76 83 79 79 76 68 51 65 85 100 100 90
48 41 32 29 27 23 22 18 24 42 39 43 62 87 98 98 54 30 29 30 55 45 10 5 7 8 10 11 10 8 8 64 100 94 92 78 69 71 67 55 65 95 100 100
58 46 37 33 27 23 23 24 27 32 47 44 38 63 96 98 96 94 55 30 25 64 32 11 9 10 11 12 13 10 6 12 74 100 92 92 77 65 72 65 58 92 95 90
65 56 41 36 32 28 26 24 26 38 47 45 46 39 89 98 92 97 86 80 52 25 33 31 27 14 13 14 14 14 9 8 19 100 93 88 93 61 62 70 53 65 88 27
65 63 54 44 36 34 30 29 27 24 40 48 41 50 49 79 88 96 73 57 61 40 30 45 48 25 21 23 19 17 14 6 6 69 96 94 96 62 52 57 62 52 82 22
66 67 57 52 49 45 39 37 33 29 31 53 60 57 54 57 93 83 92 90 88 84 67 50 50 62 35 31 40 21 19 11 5 8 68 98 88 82 63 54 60 48 59 49
62 69 70 63 58 49 43 39 38 34 30 42 53 64 63 56 55 78 100 100 90 93 82 71 62 47 46 61 61 36 21 16 10 6 24 96 100 96 90 72 62 59 48 63
66 65 65 64 58 52 47 42 40 31 25 27 46 55 64 62 60 39 51 58 72 88 97 89 67 66 68 70 65 67 63 20 16 9 7 36 94 92 93 98 84 62 59 57
75 77 70 61 59 59 52 46 47 46 31 27 36 47 60 64 64 59 42 27 27 29 33 46 66 63 56 45 56 71 73 50 18 14 6 11 74 95 98 95 100 95 65 56
63 80 79 69 67 57 49 44 43 50 48 36 35 42 49 64 64 65 61 59 53 48 50 40 32 32 29 30 27 29 56 70 31 17 10 10 23 61 96 91 99 100 99 88
78 91 88 76 66 55 48 46 58 50 48 46 40 43 45 53 62 62 62 60 60 53 44 44 45 43 39 39 37 28 27 31 41 21 15 11 8 11 70 100 85 100 100 100
85 84 82 74 68 61 56 50 54 53 40 38 33 40 43 40 42 46 46 50 49 48 45 44 42 40 37 37 39 37 33 26 36 34 20 16 11 17 30 100 98 89 100 100
85 78 77 74 64 60 56 49 50 55 48 37 41 45 40 33 27 26 26 27 28 27 27 25 25 26 26 26 29 30 34 35 30 32 31 19 11 8 17 62 100 98 90 100
76 71 72 69 64 60 54 51 52 51 45 43 37 36 35 35 35 32 29 28 25 22 20 19 18 18 19 18 19 16 25 28 30 28 27 26 19 14 14 27 90 100 100 100
62 69 71 67 64 57 52 46 41 27 23 27 24 18 17 14 13 13 12 12 15 22 25 24 23 22 16 15 13 12 14 17 22 28 24 25 21 19 11 11 44 98 87 82
76 74 66 65 55 46 40 37 25 22 22 22 19 18 18 15 12 11 10 10 10 10 9 9 10 13 12 18 25 21 16 13 16 20 24 22 18 18 16 16 68 78 97 96
67 65 60 53 42 36 31 19 21 18 15 14 12 10 10 8 8 9 24 43 72 47 41 19 18 17 17 11 16 20 18 17 18 20 19 22 18 17 30 80 78 90 89 99
60 49 39 33 27 23 19 14 10 7 8 8 7 7 7 9 21 30 86 100 100 100 94 84 99 85 57 13 10 9 8 9 10 16 20 18 20 16 23 99 99 100 100 94
35 30 26 21 15 12 10 7 8 53 87 40 34 64 46 74 81 75 100 100 100 96 77 82 85 69 61 51 40 29 14 8 8 9 12 19 19 17 32 100 100 100 97 100
20 15 10 8 6 5 5 9 76 100 96 64 82 90 81 87 95 100 100 100 98 72 58 58 46 33 46 63 41 49 43 26 15 14 11 16 21 20 18 99 100 100 100 100
7 7 6 6 6 8 21 93 100 100 100 93 94 100 100 100 100 100 96 85 85 54 57 60 32 38 88 100 91 78 72 53 33 24 14 18 21 20 26 98 100 100 100 100
6 6 7 17 61 87 100 100 90 100 100 100 100 99 99 100 100 100 85 76 63 72 75 45 42 86 91 100 96 100 100 70 46 29 31 25 19 22 56 100 100 100 100 97
11 12 18 75 100 100 100 89 99 100 100 100 100 100 100 100 100 100 100 94 73 60 69 89 98 99 88 83 100 98 100 100 72 53 37 38 25 74 74 100 100 100 100 100
14 27 77 99 100 100 100 100 100 100 100 100 100 100 100 100 100 100 100 95 75 74 81 99 100 100 100 100 100 100 100 100 100 50 35 56 88 100 100 100 100 100 100 100
22 58 90 100 100 100 100 100 100 100 100 100 100 100 100 100 100 100 100 97 94 97 100 100 100 100 98 100 100 100 100 100 100 91 66 99 100 100 100 100 100 100 100 100
61 86 100 100 100 100 100 100 100 100 100 100 100 100 99 95 100 100 86 93 100 100 100 100 100 95 100 100 100 100 100 100 100 100 100 100 100 100 100 100 100 99 100 100

GFSNW_500_rhum_198.txt.gz
RH
57 47 43 48 42 37 31 25 22 20 19 20 26 28 37 56 70 78 60 17 8 6 22 12 5 7 8 8 9 11 11 6 29 82 85 90 100 84 77 80 62 99 92 84
67 57 50 48 50 44 39 31 24 20 20 22 26 28 29 46 83 79 75 35 21 44 13 16 18 13 5 6 8 10 12 10 6 42 68 85 100 96 71 78 72 83 100 88
68 67 53 45 58 51 43 34 30 26 23 23 24 28 36 38 56 78 83 81 29 26 46 39 40 44 21 8 8 10 12 13 12 14 49 88 99 99 67 70 78 56 97 28
60 55 46 48 47 46 48 44 38 32 26 25 24 32 45 46 39 54 64 84 88 61 43 44 41 63 45 12 12 11 13 15 15 9 44 95 99 99 73 67 76 56 75 24
57 54 58 57 60 54 52 47 43 39 37 29 33 34 47 44 38 48 68 66 87 94 99 82 61 41 46 35 23 14 15 25 21 15 18 54 79 98 83 64 67 61 65 25
62 64 68 63 57 54 55 54 50 47 42 39 38 40 43 48 50 51 57 67 91 100 82 77 87 76 42 36 48 37 19 24 48 30 14 10 69 99 99 84 72 70 52 56
78 71 76 64 64 63 61 58 58 54 47 44 41 45 49 56 57 54 60 58 78 100 77 71 74 72 71 48 51 55 53 45 48 46 20 11 35 81 100 99 83 72 65 56
72 75 76 70 72 67 64 64 62 57 51 46 39 39 42 51 61 62 62 47 59 73 83 78 75 81 84 68 56 40 40 52 68 66 46 16 13 40 98 99 100 98 68 71
84 81 80 72 70 74 69 66 66 62 55 49 45 43 43 39 48 60 65 67 50 44 51 72 61 69 87 87 82 81 74 69 67 67 54 32 16 13 70 100 100 100 98 69
86 88 82 78 73 76 65 59 67 70 65 55 46 38 42 56 55 58 73 73 71 68 50 37 42 42 35 41 54 72 70 49 47 65 65 55 24 12 23 70 94 94 94 99
88 79 80 76 76 72 64 68 77 80 73 64 52 42 42 58 68 64 63 65 72 74 72 64 54 48 43 37 34 39 39 33 30 28 51 64 46 20 14 34 61 97 90 93
79 78 77 67 66 81 74 78 79 76 72 62 51 44 44 62 72 67 59 54 59 65 69 68 63 59 52 48 47 38 33 32 32 31 28 28 34 25 16 8 42 76 100 90
82 78 71 69 73 80 80 83 76 70 69 66 54 48 50 49 51 52 47 46 42 43 48 54 55 52 51 46 40 44 45 42 38 35 29 26 26 32 22 17 25 63 94 100
83 74 70 76 84 72 54 52 56 57 55 50 45 48 46 48 50 47 46 45 37 32 29 29 30 36 43 41 35 31 37 39 37 36 38 36 30 25 34 30 14 32 74 97
70 69 67 61 56 48 45 45 52 67 62 55 46 42 46 42 36 30 29 27 27 29 30 33 34 32 28 24 25 15 19 24 31 34 35 34 35 30 26 27 19 18 59 72
59 63 57 49 53 56 53 55 68 62 57 46 40 36 34 34 32 26 21 20 19 17 16 14 14 13 16 17 25 24 17 16 17 20 26 28 30 30 30 27 23 21 26 76
46 45 42 46 54 47 47 53 57 54 47 41 36 30 28 29 20 17 14 12 12 12 12 12 12 12 12 11 11 14 21 23 20 16 16 21 23 24 28 26 24 23 22 53
52 49 47 51 60 56 55 51 48 38 33 32 29 25 19 14 11 9 9 10 11 10 10 10 14 15 13 10 10 9 10 13 19 21 22 20 18 20 24 27 24 22 28 54
51 56 58 59 58 52 45 39 29 21 21 18 14 9 8 10 12 18 32 76 94 90 59 61 77 62 25 19 23 28 14 12 12 11 13 16 21 20 17 22 25 21 33 84
56 59 56 46 35 30 25 18 14 12 10 9 8 33 39 61 87 96 100 100 100 94 93 88 71 42 35 46 54 42 33 25 22 10 9 11 10 13 19 19 23 22 29 99
46 39 31 25 23 18 14 11 8 8 6 7 30 82 99 100 91 100 100 100 100 80 66 68 43 24 50 83 100 87 65 47 34 30 21 17 11 10 14 21 21 20 26 99
28 24 18 14 10 9 7 6 8 9 17 50 75 100 100 100 100 100 95 100 92 74 69 54 36 40 52 84 98 100 96 63 49 44 39 39 29 14 13 16 22 20 26 100
13 12 9 7 7 8 8 16 69 86 92 97 94 100 100 100 100 99 100 96 83 64 59 47 37 55 73 84 88 99 100 100 79 64 54 56 56 37 16 18 23 22 29 100
6 6 7 8 9 10 29 70 98 100 100 100 100 100 100 100 100 100 100 86 72 68 74 98 99 98 100 100 100 100 100 99 93 62 84 65 55 45 21 16 30 32 44 100
10 10 10 10 13 30 71 100 100 99 100 100 100 100 100 100 100 98 98 100 99 97 100 100 100 100 100 98 76 92 84 79 75 81 72 65 50 45 47 76 100 90 78 100
13 12 12 13 17 59 92 96 100 97 100 100 100 100 100 96 100 100 95 93 100 98 100 100 100 100 100 93 78 56 50 93 99 99 100 100 100 100 100 100 100 100 100 100
13 14 16 34 69 98 100 96 100 100 100 100 100 100 100 100 83 84 100 100 100 100 100 100 100 100 92 78 79 99 100 100 95 100 100 97 100 100 100 100 100 100 100 100

GFSNW_500_rhum_201.txt.gz
RH
72 70 64 62 58 52 52 38 39 37 31 30 28 27 22 20 23 25 28 51 62 73 70 15 9 10 23 33 11 16 5 8 12 14 14 10 59 96 98 86 77 84 88 48
71 74 67 69 61 62 56 43 44 42 39 35 36 32 27 23 26 28 30 36 43 61 78 59 28 30 44 28 46 36 31 14 11 13 15 13 27 99 98 97 72 76 75 39
67 66 70 74 65 55 47 48 52 50 45 42 40 36 33 32 27 33 33 34 41 53 91 96 73 30 38 57 77 68 49 20 12 13 17 17 13 52 59 99 76 76 69 24
72 66 64 65 69 58 50 53 54 51 49 49 47 43 42 37 34 32 31 32 39 46 55 78 96 94 57 48 48 70 70 32 22 18 20 26 18 14 50 100 96 83 60 35
83 79 84 81 74 65 65 64 62 57 59 58 55 49 49 47 43 37 36 41 42 45 48 44 96 100 100 91 61 63 52 60 51 36 27 49 27 15 28 95 99 97 70 57
89 88 86 89 82 84 75 70 64 62 59 58 59 57 54 50 49 45 42 48 53 59 58 49 53 81 94 94 98 94 84 58 54 61 51 44 57 27 14 42 99 98 79 64
90 85 91 90 88 79 70 71 74 70 62 64 68 63 57 56 51 46 50 54 56 54 49 47 53 60 80 87 75 76 78 72 61 59 51 56 63 58 24 14 87 99 99 87
93 88 90 89 82 80 81 81 77 74 68 72 69 60 62 60 56 52 50 57 61 58 54 50 45 54 62 91 90 94 99 93 66 60 64 68 70 70 41 15 65 99 97 99
99 99 92 84 78 78 84 84 75 72 67 69 64 63 70 72 68 57 51 47 50 60 59 59 53 48 57 50 69 73 99 100 91 84 76 69 53 81 63 27 15 51 98 98
98 97 98 94 88 89 90 79 71 70 65 64 60 66 75 80 76 67 61 58 58 55 62 63 58 55 60 62 46 41 36 48 64 80 75 50 26 53 68 49 25 25 65 98
97 100 95 96 96 89 79 74 69 63 56 58 66 80 76 71 72 67 61 58 62 64 71 75 62 54 54 59 66 57 40 30 29 34 41 33 30 29 47 49 32 17 22 74
100 100 98 96 93 90 83 75 73 68 62 57 67 69 71 69 73 72 64 59 60 63 69 76 75 58 54 50 56 60 60 52 46 40 33 31 31 31 28 35 49 20 20 38
100 100 100 98 96 88 82 83 64 57 51 57 49 46 46 53 53 52 52 53 55 54 52 52 51 46 44 43 43 50 59 63 59 53 43 36 33 33 30 27 43 28 23 16
99 100 99 96 92 83 74 65 62 62 55 50 43 41 45 53 52 55 55 52 49 46 42 45 54 47 45 43 39 34 32 41 48 49 50 46 44 41 38 36 30 26 25 18
99 96 93 85 81 77 68 53 51 46 41 38 37 42 48 55 48 41 36 34 33 31 31 30 28 25 23 22 22 34 34 28 27 30 36 37 40 41 40 38 37 34 25 23
90 77 69 68 66 62 54 47 50 49 48 35 39 40 40 44 41 28 24 22 22 21 20 20 21 20 19 21 22 19 16 16 22 25 24 22 24 30 39 42 40 36 31 28
79 72 59 47 45 44 44 52 42 47 51 52 45 40 38 35 33 29 23 19 15 13 12 13 11 11 11 13 15 12 15 17 16 15 16 23 21 20 26 37 38 34 32 30
46 38 32 42 46 45 49 54 54 52 50 43 36 32 27 17 16 14 12 12 11 12 11 11 12 10 10 8 9 12 10 10 12 15 16 15 17 23 19 22 30 30 31 31
45 46 44 48 55 56 54 51 47 40 34 31 26 17 15 13 13 18 38 53 42 57 62 47 35 35 26 42 28 46 37 17 18 18 10 10 10 13 22 18 18 23 25 29
57 60 59 58 57 48 41 35 31 25 20 17 13 10 9 17 45 81 99 94 92 88 68 75 57 45 59 62 78 98 91 51 34 34 36 24 12 10 10 20 19 17 24 23
63 62 58 47 39 32 27 22 17 13 11 10 8 8 17 99 100 99 100 100 100 75 86 72 49 52 88 96 97 94 81 66 56 56 56 60 44 28 14 12 19 22 20 17
53 44 35 29 24 21 17 13 11 9 8 11 17 48 94 100 100 100 96 99 97 98 85 80 80 96 99 98 97 82 67 54 39 35 36 42 52 56 45 29 17 17 22 21
36 30 27 21 15 12 10 8 7 9 24 37 74 100 100 100 100 97 100 98 85 83 96 100 100 100 100 93 86 99 100 99 68 67 75 78 69 45 45 48 39 21 17 23
27 22 17 13 8 8 8 8 10 20 49 96 100 100 100 100 99 100 98 98 94 96 100 100 100 100 94 92 87 67 66 74 81 62 58 42 88 77 56 43 47 36 20 17
16 12 8 8 8 9 9 11 13 21 59 96 100 100 100 100 100 100 92 89 98 100 100 100 100 100 100 97 100 99 99 95 99 99 86 83 94 97 96 58 49 48 31 25
8 9 10 10 10 11 12 15 24 60 92 100 99 100 100 100 100 100 97 99 100 100 100 100 99 99 100 100 66 46 56 80 76 79 88 99 90 81 78 78 62 63 38 51
10 12 12 11 12 16 33 65 79 97 100 100 100 95 100 100 99 98 100 100 100 99 100 100 100 100 90 95 99 72 66 97 100 100 99 100 100 84 76 91 100 100 100 89

GFSNW_500_rhum_204.txt.gz
RH
69 69 72 69 63 63 60 63 57 58 52 50 48 41 39 38 33 31 29 26 23 22 28 34 52 64 68 35 19 13 29 36 32 22 20 13 18 18 16 10 73 99 80 55
68 68 67 68 67 63 62 61 59 58 52 52 53 48 47 45 41 38 35 33 30 29 32 34 40 52 66 82 72 37 33 43 54 61 33 15 19 30 37 15 45 100 90 67
70 68 68 74 73 65 66 69 67 66 60 60 60 56 55 52 49 47 44 41 39 35 34 35 36 45 60 71 80 82 43 46 63 77 22 17 19 44 50 23 19 73 98 64
73 78 80 79 75 74 73 77 79 72 72 74 67 65 62 58 56 54 52 49 46 44 42 45 46 46 54 62 76 89 85 60 45 64 69 43 32 51 56 45 15 31 100 86
84 92 89 86 81 79 79 76 81 80 84 74 71 73 69 63 64 65 62 61 54 48 43 44 40 47 51 59 79 86 74 83 77 71 71 58 62 58 52 64 32 15 90 96
84 89 90 90 86 84 74 75 80 87 80 74 77 78 74 72 73 68 65 62 58 53 48 43 42 40 46 51 61 86 76 86 86 79 96 77 54 58 65 76 54 14 82 98
87 88 89 85 84 84 79 77 78 78 81 82 80 72 71 74 73 67 66 64 61 60 57 54 50 42 38 51 57 59 71 96 85 73 79 83 75 68 72 83 63 24 42 84
93 93 92 90 93 85 82 80 83 76 78 88 86 75 71 69 63 58 59 72 72 70 67 60 54 51 50 49 54 61 54 71 93 78 87 81 79 84 68 67 68 41 17 63
96 94 94 90 92 89 85 86 90 88 85 88 83 76 70 67 62 60 65 64 71 76 76 70 64 58 52 51 58 64 66 55 54 74 80 92 85 85 66 44 68 52 29 32
92 90 95 94 88 84 91 95 94 92 84 86 80 75 71 69 67 58 68 82 86 79 76 72 64 56 57 57 62 68 66 67 63 42 43 39 60 77 47 30 49 65 44 22
94 95 98 92 87 86 95 100 99 97 90 87 79 75 65 52 55 54 56 54 70 76 75 72 71 69 62 61 66 75 69 63 69 78 51 31 24 36 32 30 30 35 45 26
74 82 84 92 96 95 97 100 100 95 90 83 78 74 64 57 55 53 49 49 54 54 59 58 59 58 56 58 56 59 58 56 58 64 76 64 46 36 31 31 31 28 31 41
82 92 91 95 96 99 100 100 96 89 79 75 73 65 61 56 45 39 42 52 57 64 62 58 56 52 50 49 49 48 46 39 42 48 58 65 61 54 46 38 33 32 27 34
95 99 98 100 98 94 100 100 96 84 69 61 62 54 48 50 48 41 42 49 51 52 50 46 43 40 39 43 48 51 45 41 37 36 34 52 64 59 50 43 39 38 35 28
100 100 96 98 98 96 96 88 76 70 60 53 44 43 51 48 44 46 50 50 49 47 43 40 36 33 32 32 33 36 31 26 23 23 24 28 34 57 58 54 47 43 41 37
100 100 100 99 88 80 78 76 63 52 45 39 31 30 41 50 49 47 46 40 35 32 28 24 22 16 18 21 22 20 19 19 20 20 21 19 24 26 34 48 51 46 43 40
100 100 96 82 69 59 46 40 32 28 32 32 31 44 46 44 39 35 30 26 20 16 14 14 14 16 14 13 13 15 13 14 14 14 15 16 17 16 23 26 30 34 37 41
96 91 72 56 44 32 31 38 39 42 48 45 42 40 36 31 25 20 15 14 13 13 15 16 28 32 30 25 38 18 14 11 11 12 14 13 12 13 15 16 23 22 23 30
59 50 40 35 36 40 45 50 52 48 45 39 32 28 22 18 13 12 12 14 26 33 46 46 44 50 49 67 64 57 48 23 20 20 14 10 9 10 12 18 17 19 21 22
46 41 41 47 51 56 56 54 49 41 32 26 21 18 13 13 10 15 24 61 78 52 80 84 68 72 99 75 73 85 90 84 57 64 92 78 42 26 17 13 16 18 19 21
53 53 52 54 53 53 50 42 34 28 23 18 14 12 10 11 13 46 87 84 66 63 71 88 91 89 94 100 100 95 86 75 53 37 36 33 39 53 51 40 26 16 15 21
57 55 54 57 55 48 38 30 24 20 16 13 10 10 11 26 76 100 98 69 75 84 86 97 100 100 100 100 99 100 82 63 48 39 45 47 49 45 36 35 39 29 18 15
57 58 58 53 40 31 26 22 18 13 10 10 12 19 45 97 100 91 76 75 79 88 99 97 95 93 89 82 80 79 82 76 76 65 47 38 44 48 50 47 48 33 32 23
58 55 47 35 28 25 18 14 11 9 7 7 7 16 88 100 92 93 82 83 88 93 100 100 100 93 96 100 100 97 99 100 99 93 84 85 65 56 63 81 76 57 39 39
51 39 27 23 19 16 11 8 8 7 8 10 11 21 86 98 90 94 93 91 100 100 100 100 100 100 97 95 64 42 62 66 84 100 100 100 100 93 69 62 91 63 52 45
30 21 18 14 11 9 8 8 9 10 14 15 27 56 84 100 100 97 100 100 100 100 100 100 100 100 96 96 94 66 77 98 100 94 99 100 100 100 99 100 99 78 61 51
18 10 10 9 9 10 10 10 13 22 45 68 92 92 97 100 98 99 100 100 100 100 100 100 100 100 100 100 100 88 66 79 88 78 100 100 100 100 100 100 100 90 93 84

GFSNW_500_rhum_207.txt.gz
RH
63 65 59 58 59 59 61 66 61 66 61 63 63 60 57 56 53 51 45 42 40 39 38 38 33 35 33 42 50 52 62 74 64 25 33 47 67 71 19 23 37 39 15 72
69 72 63 65 65 65 63 68 70 65 68 71 72 69 68 70 61 62 56 50 48 47 45 46 43 40 42 42 42 45 47 50 71 87 50 49 85 28 20 36 43 52 21 59
77 75 69 71 71 73 74 73 71 72 71 76 80 78 75 74 69 69 68 60 59 58 56 56 52 47 45 46 47 49 49 61 78 87 65 51 80 47 44 47 50 50 52 16
80 82 76 81 74 70 78 82 79 74 74 78 80 84 81 74 71 74 69 64 65 63 58 56 53 51 51 51 52 54 50 48 57 81 69 43 71 82 67 66 67 62 64 20
83 84 87 80 68 71 84 90 87 82 76 72 75 81 86 78 78 77 68 68 67 63 56 51 53 55 57 57 56 53 52 53 52 65 78 90 80 100 68 52 58 66 73 28
88 90 86 75 72 82 82 86 84 77 78 72 75 81 82 82 84 82 75 68 60 57 54 56 58 56 60 64 61 63 62 58 55 44 76 77 76 93 100 85 67 70 80 36
96 93 91 84 79 79 82 87 86 82 77 79 84 86 85 85 87 87 74 66 60 57 60 59 58 59 60 65 68 65 64 68 64 52 57 56 85 98 100 98 80 72 71 57
84 83 86 78 87 86 88 89 89 84 82 82 86 92 93 92 88 85 77 72 62 59 56 52 52 61 65 70 72 68 65 70 87 74 61 51 66 91 99 91 81 78 60 69
80 78 86 90 93 93 86 86 84 85 85 91 94 95 93 91 90 87 76 70 62 54 52 53 48 46 49 64 66 69 66 69 78 98 91 67 56 78 97 100 89 69 42 65
92 83 85 94 96 84 83 83 80 77 80 95 97 98 100 96 92 86 79 74 67 61 56 53 51 47 50 53 64 66 70 68 82 99 92 74 61 46 45 36 63 58 32 60
96 90 82 89 83 78 83 85 83 84 85 97 100 100 100 98 90 77 72 68 63 60 54 47 50 42 44 45 51 55 55 58 61 96 95 84 63 75 43 22 25 34 30 32
97 94 87 80 78 66 67 81 89 88 93 100 96 91 89 87 76 65 63 56 47 45 44 43 42 46 47 55 56 53 52 50 49 55 92 83 63 63 93 73 38 29 29 30
94 96 97 91 82 71 78 91 89 92 88 97 96 90 82 70 62 56 52 49 43 46 45 41 42 44 46 44 43 42 42 41 42 44 46 69 55 62 68 97 57 44 37 33
93 97 96 99 78 80 94 88 86 89 92 86 77 73 67 58 49 42 37 38 32 29 37 44 44 44 41 40 40 38 36 38 36 38 39 40 55 55 56 66 86 58 47 40
99 98 93 81 73 92 97 98 96 96 83 67 60 54 44 36 31 26 25 29 36 41 39 38 35 31 28 25 24 26 25 24 25 29 30 39 45 46 42 39 51 73 58 48
100 92 88 83 100 100 100 99 93 78 60 49 36 35 30 28 29 32 38 38 36 36 30 24 20 16 15 14 14 19 16 16 16 17 18 20 26 28 33 43 34 36 59 56
92 94 93 100 100 100 98 85 71 50 38 31 27 32 37 39 38 37 34 31 25 20 15 13 13 13 12 14 30 27 13 10 10 11 14 14 15 17 21 20 24 32 31 40
97 97 96 98 100 88 70 50 36 33 31 27 34 42 42 38 33 29 24 20 16 13 13 20 24 22 30 29 38 36 47 39 23 17 14 12 13 13 14 14 17 19 20 26
100 97 97 87 70 54 40 36 35 33 36 40 41 40 36 31 25 21 17 14 12 15 34 46 46 54 66 56 66 76 68 70 72 65 60 52 29 22 17 14 13 13 15 17
100 92 76 64 50 41 35 39 42 43 42 38 36 32 28 24 19 15 11 14 29 42 60 72 71 88 96 91 90 71 63 52 58 68 72 62 64 66 62 47 36 15 11 15
78 68 52 40 42 49 45 42 46 41 39 35 31 26 22 16 12 11 12 24 53 58 48 79 84 100 100 100 100 98 80 64 59 38 44 51 44 45 38 45 48 43 26 13
57 41 35 46 57 50 49 45 42 41 36 30 25 19 14 12 10 12 32 66 91 67 73 81 98 100 100 98 99 98 89 91 98 84 72 67 50 34 28 42 50 38 36 29
38 53 65 58 54 52 48 48 43 35 27 22 18 13 9 10 17 37 68 88 86 80 83 100 94 89 86 80 84 95 80 64 73 80 87 93 86 66 45 53 45 42 42 35
62 65 65 61 56 52 48 41 34 24 19 15 12 9 7 9 25 96 85 81 82 82 95 96 100 100 100 97 99 80 67 76 76 87 61 50 71 91 89 64 57 60 71 51
75 71 70 62 56 49 40 30 22 15 12 9 8 8 8 10 19 99 94 86 88 85 100 100 100 100 100 100 100 97 68 71 84 100 100 96 88 100 100 100 98 82 100 93
73 69 65 56 47 37 27 17 12 10 8 8 9 11 13 17 40 94 84 94 100 98 100 100 100 100 100 99 100 99 97 85 96 82 100 100 100 100 100 100 100 85 100 100
72 67 58 46 30 18 13 9 8 8 9 11 17 30 45 70 75 88 94 100 100 100 100 100 100 100 100 100 100 100 100 100 90 99 100 100 100 100 100 100 100 100 100 100

GFSNW_500_rhum_213.txt.gz
RH
78 76 81 85 79 77 69 68 67 67 69 71 67 61 58 59 65 70 66 63 69 74 72 71 66 65 62 58 56 54 54 49 48 56 58 57 56 59 77 74 64 62 59 47
75 83 90 93 88 83 77 74 76 74 75 77 72 67 64 60 66 69 68 64 71 72 74 72 72 71 68 62 57 52 51 50 46 51 55 59 59 58 66 78 74 55 59 59
84 90 92 92 89 82 72 66 70 79 82 82 72 66 68 65 72 70 66 68 69 74 79 80 78 79 71 68 61 58 51 49 54 52 63 72 68 62 60 66 73 67 53 75
93 95 96 93 91 83 75 73 76 85 87 89 79 66 64 65 69 74 74 72 71 70 73 77 82 74 75 71 63 57 57 50 50 53 68 73 78 76 71 88 93 77 68 71
96 94 94 93 90 79 79 73 72 77 81 81 75 71 75 82 73 74 74 77 71 67 67 70 75 73 76 68 70 67 57 53 52 46 58 67 72 81 89 92 92 100 93 96
91 98 97 88 81 81 84 82 78 74 70 79 77 79 86 87 81 76 81 76 76 75 66 66 66 60 64 65 68 64 63 58 52 40 43 46 62 68 70 80 92 84 94 99
96 99 97 86 85 92 93 95 89 90 81 88 78 73 79 84 85 82 77 84 79 74 76 67 63 70 65 65 67 60 58 53 47 41 42 42 48 60 75 85 98 84 79 99
96 98 96 90 94 96 95 96 89 83 88 90 85 79 84 88 72 64 77 76 73 72 70 66 58 60 57 57 53 50 47 47 47 46 41 38 50 58 68 94 100 98 91 100
97 97 97 96 91 91 89 98 95 93 94 89 86 87 84 84 65 57 64 75 76 71 63 58 56 51 48 42 36 35 36 40 38 44 41 43 53 58 61 84 94 100 99 74
98 87 97 97 96 94 91 90 93 85 78 77 82 91 84 77 75 67 59 64 66 70 64 55 52 42 35 31 26 24 24 30 37 42 43 40 48 51 57 65 70 98 99 84
86 99 97 97 98 98 95 98 95 95 90 82 88 88 95 90 77 69 64 68 70 65 61 49 40 34 30 26 24 29 30 33 35 37 38 39 46 44 47 55 65 84 94 85
93 99 98 96 97 99 97 98 97 97 87 81 76 85 80 84 69 62 73 73 67 60 47 40 35 28 25 23 23 34 35 35 32 32 32 33 32 37 39 46 52 55 73 91
56 94 99 98 96 99 90 92 88 97 90 88 78 80 88 82 71 67 83 75 62 51 45 35 26 26 27 24 26 29 30 28 26 23 22 23 25 28 30 33 37 54 55 72
96 98 98 98 98 98 98 100 97 99 85 82 81 76 84 83 72 71 71 62 49 40 28 24 29 32 26 22 23 22 19 19 16 15 14 14 16 19 21 21 24 28 42 64
89 95 99 99 98 97 99 99 92 88 79 85 81 75 82 75 71 71 54 36 30 25 26 28 31 30 25 22 19 17 15 14 14 15 14 12 20 27 29 20 18 18 24 29
99 100 100 100 97 100 100 100 96 85 84 92 98 89 78 75 72 50 34 28 27 28 26 27 27 24 21 18 14 13 14 17 14 17 29 38 34 38 41 33 28 21 17 18
98 100 99 89 52 100 100 96 92 86 92 90 100 98 83 70 52 35 28 24 25 26 26 27 24 20 17 14 12 14 19 37 50 41 39 51 53 45 48 43 42 34 24 20
100 96 66 50 98 99 95 85 91 90 94 100 100 87 68 47 34 28 25 23 26 28 26 24 20 16 13 12 15 22 35 52 61 63 66 49 40 55 57 48 42 37 30 27
96 85 75 98 99 100 100 98 97 100 100 95 84 59 38 35 30 27 26 30 30 27 24 19 16 13 13 17 25 54 80 75 63 70 77 78 66 61 76 69 60 49 42 37
67 89 96 97 100 100 100 100 100 100 100 82 54 38 32 33 32 30 31 30 28 24 18 14 13 14 28 48 76 92 84 84 75 53 68 100 75 56 54 66 74 62 60 53
100 100 100 100 100 100 100 100 100 95 71 48 38 35 34 33 34 32 31 28 25 19 14 11 13 29 58 86 99 91 87 86 78 65 86 56 45 50 60 85 74 56 64 61
100 100 100 100 100 100 99 98 76 54 43 39 36 38 39 40 37 34 29 26 21 14 12 11 15 56 95 100 100 99 92 90 88 96 86 66 62 74 80 78 94 71 55 70
100 100 100 100 99 96 81 59 47 42 43 42 41 43 43 41 37 33 28 23 16 12 8 10 50 98 100 96 94 99 99 100 97 96 96 78 69 74 84 85 74 63 50 62
100 100 100 97 76 51 44 42 43 49 53 48 48 48 46 43 38 29 25 17 12 8 7 29 82 100 88 91 95 94 100 100 100 90 80 88 97 85 92 90 97 90 69 47
100 98 93 67 55 50 48 49 54 58 55 48 45 48 46 41 34 23 16 10 8 9 12 88 100 92 98 100 99 100 97 99 96 99 100 100 92 92 100 100 100 98 64 50
99 96 83 76 72 70 64 59 51 45 48 51 51 47 39 31 21 17 11 10 14 18 21 68 96 100 100 100 100 96 100 99 100 100 100 94 86 98 100 100 100 100 90 80
96 95 89 72 54 44 45 52 56 54 54 55 47 39 24 22 13 9 10 18 33 37 33 63 99 100 100 100 100 100 100 100 100 100 100 100 99 95 100 100 100 100 100 100

GFSNW_500_rhum_216.txt.gz
RH
69 70 68 68 66 64 61 70 71 69 66 62 59 57 63 69 67 61 63 62 62 61 63 60 59 64 68 68 64 64 62 55 52 56 54 56 59 64 69 69 62 62 58 46
70 70 66 66 64 64 71 73 75 73 67 62 59 58 66 73 74 66 63 66 72 67 70 62 61 64 67 70 72 65 62 61 54 56 53 52 54 62 83 81 78 71 70 50
72 73 68 68 69 72 76 76 79 76 71 66 63 66 75 75 72 70 72 70 73 70 69 64 65 66 62 66 68 70 66 66 67 63 66 60 54 63 80 85 77 72 58 58
70 74 77 76 79 80 82 81 77 71 68 66 66 68 66 65 70 72 77 84 80 75 69 71 63 65 70 70 63 64 60 51 55 52 55 60 54 53 63 74 83 80 75 76
68 72 74 72 80 84 81 77 76 75 71 67 67 70 70 67 67 65 69 73 75 69 63 65 77 76 73 68 69 66 57 59 48 41 47 50 48 48 52 58 65 70 74 79
71 71 76 82 87 88 83 82 79 72 77 83 81 80 75 70 67 66 69 71 74 63 60 58 60 68 71 64 65 65 64 58 44 33 37 36 41 42 42 47 54 65 74 83
92 89 88 89 89 84 88 85 85 84 88 93 93 83 72 77 76 66 70 77 74 63 57 55 59 68 71 63 61 56 53 45 37 29 27 31 37 37 34 46 57 64 78 90
95 93 94 100 95 100 100 93 91 83 79 84 100 89 77 72 70 73 80 78 76 72 62 58 64 71 62 58 50 45 39 33 29 25 22 22 36 45 44 51 57 61 67 94
98 97 95 100 100 98 97 94 97 100 90 88 94 92 84 75 78 86 88 94 94 82 66 67 65 61 57 51 44 38 33 27 23 24 24 26 37 40 44 49 50 52 56 70
97 94 98 97 97 98 100 100 94 95 97 98 97 98 90 79 75 72 75 75 78 71 66 69 68 58 51 44 40 32 25 23 26 33 28 30 33 36 43 44 46 46 51 60
92 96 99 90 92 90 92 98 97 98 97 98 96 96 92 93 93 79 73 74 79 71 69 74 64 54 47 40 30 25 27 26 28 27 28 27 27 28 28 33 33 36 40 51
70 87 98 96 92 98 98 98 98 97 98 98 98 97 98 93 91 74 82 80 70 61 62 62 56 45 36 28 24 29 31 27 26 25 23 21 19 18 18 18 22 26 31 40
65 95 98 98 84 82 92 90 98 95 98 98 98 96 95 96 80 78 88 89 81 68 64 57 40 30 28 25 25 28 28 26 23 20 22 17 20 22 17 15 15 16 17 20
98 98 98 97 97 93 99 99 99 100 96 99 98 96 92 96 88 90 95 91 80 71 55 40 30 26 24 20 24 27 22 21 19 17 15 16 24 21 21 21 18 16 16 16
26 90 79 89 98 89 54 77 91 99 100 99 97 85 86 84 86 93 96 86 72 62 41 30 26 25 22 22 25 23 20 18 16 14 15 13 29 37 23 23 22 21 16 18
6 6 21 67 49 9 24 67 92 98 96 94 89 87 77 84 94 100 99 83 62 43 31 28 25 23 22 23 23 21 18 15 13 13 22 32 30 38 46 48 47 37 26 22
5 5 8 60 24 57 97 95 99 96 84 91 78 75 96 100 100 95 89 58 43 33 27 25 24 24 24 24 20 17 14 12 19 26 30 42 57 53 69 69 61 53 51 51
5 11 97 100 63 92 96 98 98 100 88 86 90 99 99 100 99 90 60 42 34 28 26 25 26 25 23 20 16 12 11 16 48 64 71 60 36 44 59 62 50 55 56 41
7 18 50 36 71 100 100 99 100 91 98 100 100 100 99 94 89 71 43 34 29 30 29 27 25 24 19 15 12 11 16 34 54 58 80 79 60 54 65 52 41 31 34 52
10 11 14 33 88 99 93 76 69 73 98 97 100 100 100 87 58 42 34 32 32 32 30 28 25 21 17 13 11 16 51 74 52 54 70 70 71 74 71 48 35 49 44 40
43 86 100 95 52 34 50 79 93 100 99 100 100 98 79 52 42 39 35 34 34 35 30 27 25 20 13 12 18 43 66 71 76 76 64 63 60 75 84 68 65 64 66 55
94 69 74 83 88 96 100 100 100 100 100 100 92 58 46 41 41 39 36 36 36 36 30 28 23 14 10 16 50 71 79 85 80 86 94 95 85 79 82 87 92 89 72 66
100 100 100 100 100 100 100 100 100 100 95 81 50 46 47 46 42 37 33 33 36 33 30 22 16 11 11 24 71 82 80 82 88 99 93 76 73 83 71 73 85 68 62 67
100 100 100 100 100 100 100 100 100 83 58 44 47 50 52 43 32 33 36 36 36 33 23 16 14 10 13 46 67 80 94 93 95 86 89 97 100 69 78 99 100 100 100 83
100 100 100 100 100 100 100 100 90 70 59 54 52 49 39 36 33 38 40 40 34 28 17 14 12 10 18 71 90 96 94 96 92 85 98 100 100 88 97 99 100 100 95 85
100 100 100 100 100 100 100 98 87 67 49 40 38 38 38 44 40 41 39 35 24 17 13 13 12 14 26 86 95 96 94 91 100 100 100 100 100 100 100 100 100 100 100 100
100 100 100 100 100 99 86 65 50 42 40 42 36 38 46 43 45 38 27 18 14 9 10 16 24 26 53 92 100 98 91 100 100 100 100 100 100 100 97 100 100 100 100 100